Regional Weather Roundup
Issued by NWS Green Bay, WI

Home | Current Version | Previous Version | Text Only | Print | Product List | Glossary On
Versions: 1 2 3 4 5 6 7 8 9 10 11 12 13 14 15 16 17 18 19 20 21 22 23 24 25 26 27 28 29 30 31 32 33 34 35 36 37 38 39 40 41 42 43 44 45 46 47 48 49 50
000
ASUS43 KGRB 112200
RWRGRB

NORTH-CENTRAL AND NORTHEAST WISCONSIN REGIONAL WEATHER ROUNDUP
NATIONAL WEATHER SERVICE GREEN BAY WI
400 PM CST THU FEB 11 2016

WIZ005-009-010>012-018-019-112300-
NORTH CENTRAL WISCONSIN

CITY           SKY/WX    TMP DP  RH WIND       PRES   REMARKS
IRONWOOD       SUNNY     12  -2  52 W8        30.08F WCI   1
MANITOWISH WTR NOT AVBL
ARBOR VITAE    NOT AVBL
EAGLE RIVER    NOT AVBL
LAND O LAKES   NOT AVBL
RHINELANDER    PTSUNNY   14  -7  38 W12       30.10F WCI   0
PHILLIPS       NOT AVBL
ANTIGO         NOT AVBL
TOMAHAWK       NOT AVBL
MERRILL        NOT AVBL
$$

WIZ013-073-112300-
NORTHEAST WISCONSIN

CITY           SKY/WX    TMP DP  RH WIND       PRES   REMARKS
IRON MOUNTAIN  PTSUNNY   17   1  49 NW6       30.10S WCI   9
MARINETTE      SUNNY     19   1  45 SW9       30.16F WCI   9
$$

WIZ017-030-035>037-045-112300-
CENTRAL WISCONSIN

CITY           SKY/WX    TMP DP  RH WIND       PRES   REMARKS
MEDFORD        NOT AVBL
WAUSAU         SUNNY     14  -5  42 W8        30.16F WCI   3
MOSINEE        SUNNY     12  -2  52 W7        30.18S WCI   2
MARSHFIELD     PTSUNNY   15  -5  40 W6        30.17F WCI   6
WISC RAPIDS    MOSUNNY   17  -6  35 W12       30.22S WCI   4
STEVENS POINT  NOT AVBL
WAUPACA        NOT AVBL
SHAWANO        SUNNY     21  -2  36 SW6       30.20R
CLINTONVILLE   NOT AVBL
WAUTOMA        NOT AVBL
$$

WIZ038-039-048-051-112300-
FOX VALLEY

CITY           SKY/WX    TMP DP  RH WIND       PRES   REMARKS
NWS GREEN BAY  SUNNY     17  -1  45 W12       30.21S WCI   4
APPLETON       MOSUNNY   18  -4  38 W12       30.19F WCI   5
OSHKOSH        SUNNY     17  -1  45 VRB5      30.22S WCI  10
FOND DU LAC    SUNNY     16  -1  47 SW10      30.23S WCI   4
$$

WIZ022-050-052-112300-
EAST CENTRAL WISCONSIN

CITY           SKY/WX    TMP DP  RH WIND       PRES   REMARKS
EPHRAIM        FAIR      16   1  52 SW7       30.16S WCI   6
STURGEON BAY   SUNNY     16   0  48 SW9       30.20S WCI   4
MANITOWOC      NOT AVBL
SHEBOYGAN      SUNNY     16   1  51 W9        30.23S WCI   4
$$

LMZ563-521-522-541>543-112300-
LAKESHORE

STATION/POSITION TIME  TEMP    WIND        PRES    VSBY  WAVE
                       AIR SEA DIR/SP/G                  HT/PER
                 (UTC) (F)     (DEG/KT/KT) (MB)    (MI)  (FT/S)
SHEBOYGAN LKSHOR 2100   16     280/  9/ 11 1025.6F
KEWAUNEE LKSHORE 2100   15     280/ 11/ 14 1022.3F
CHAMBERS ISLAND  2100   17     180/  9/ 13 1022.0F
MENOMINEE LKSHOR 2100   18     230/ 11     1020.8F
$$



USA.gov is the U.S. government's official web portal to all federal, state and local government web resources and services.